Wind_Speed
5 6 4 4 1 2 2 4 4 4 5 7 7 8 8 7 8 8 6 5 5 6 1 8 13 25 31 36 33 34 34 28 29 19 22 26 26 27 26 26 26 26 25 24
6 3 1 5 4 2 3 5 4 8 12 7 10 6 9 5 5 5 6 7 6 4 5 4 8 20 28 33 37 39 37 38 40 38 28 26 33 32 29 23 26 28 28 28
5 3 3 1 1 3 1 4 4 4 8 1 7 3 6 6 5 11 9 8 5 8 8 6 8 15 21 24 28 31 32 36 38 36 34 33 28 28 25 25 23 25 28 32
2 1 1 0 2 2 1 3 2 7 4 0 3 1 5 10 9 13 14 9 9 8 6 6 8 13 18 22 24 24 28 29 30 30 32 31 28 25 29 30 27 26 26 28
2 2 1 2 2 2 2 2 5 4 3 2 2 0 4 9 10 21 17 10 8 9 9 9 9 20 23 20 20 21 22 21 22 24 25 26 27 22 24 22 19 21 23 23
3 2 3 2 2 2 4 5 7 5 2 2 6 4 3 5 13 12 17 11 9 9 9 9 17 21 20 18 20 19 20 22 21 20 22 23 24 24 21 19 16 16 20 20
7 3 2 2 1 2 3 4 1 0 2 3 3 4 7 4 5 6 9 10 10 8 7 8 9 11 19 20 21 23 20 19 18 17 18 19 19 18 18 17 16 16 16 19
1 7 2 1 4 4 3 5 4 5 3 2 1 6 6 5 5 6 8 7 4 5 7 9 10 18 24 23 21 20 22 20 18 18 18 17 16 15 15 16 16 16 17 17
3 5 2 2 2 1 2 2 3 6 2 2 4 6 8 8 9 6 7 4 4 4 5 8 7 14 21 20 19 21 22 19 16 15 14 14 14 15 15 14 15 14 13 16
2 3 1 5 2 2 3 5 3 2 3 4 3 4 5 4 5 3 5 3 3 4 5 5 1 5 6 11 15 15 16 16 14 14 14 13 11 11 11 11 12 13 17 20
3 2 5 3 4 6 2 2 1 3 3 4 1 5 5 5 5 5 7 1 4 4 4 5 6 7 3 5 8 11 12 14 14 13 12 11 10 10 9 9 10 14 19 19
3 3 4 7 2 1 2 3 4 3 3 2 3 5 2 5 7 6 2 5 2 3 3 4 6 6 5 7 8 11 13 14 13 12 10 10 10 11 12 12 14 16 17 16
3 2 3 9 0 3 3 4 7 1 2 5 4 5 2 3 7 6 5 4 3 3 4 4 5 5 5 3 6 9 11 12 12 13 13 13 12 13 14 15 16 16 17 15
2 3 5 5 5 2 3 3 5 7 2 3 8 2 3 6 5 4 5 4 3 3 3 3 3 2 2 2 3 5 7 9 12 14 15 15 15 15 16 17 17 16 14 12
3 1 1 9 10 8 6 9 6 6 4 4 1 8 7 3 3 2 1 4 4 3 4 4 4 4 4 2 1 2 5 8 11 15 16 16 16 16 16 16 15 14 11 8
4 1 2 4 7 9 10 8 11 13 8 10 8 6 5 5 0 3 3 1 2 3 4 6 6 5 6 7 7 6 7 10 13 16 17 17 17 17 17 17 16 11 10 10
3 1 3 4 5 2 3 6 8 3 4 4 9 3 4 11 5 3 4 6 6 6 6 6 6 6 9 10 10 12 10 11 14 16 18 19 19 18 18 17 14 13 12 10
3 2 1 3 5 1 5 5 2 6 5 4 7 8 7 12 17 13 4 5 8 7 7 5 4 5 8 6 7 11 12 15 17 18 20 20 19 19 18 17 15 14 13 10
2 2 2 2 2 5 3 5 4 2 3 7 6 9 12 13 4 5 3 5 4 3 1 2 5 9 11 12 11 9 11 16 19 21 22 22 22 20 19 19 18 15 13 10
1 1 2 2 1 2 1 6 3 4 2 9 9 11 10 3 2 4 4 1 2 5 5 8 11 13 14 14 12 13 13 17 22 23 24 23 22 22 23 21 19 16 12 10
2 1 3 1 2 6 4 9 4 2 2 8 9 8 9 5 4 5 3 3 3 4 7 8 9 10 12 12 10 12 14 20 22 20 20 22 23 23 22 21 19 16 12 9
6 5 3 3 2 5 3 4 2 0 3 2 5 8 9 10 10 4 2 2 3 5 7 7 9 10 12 10 8 9 12 12 14 17 20 22 21 21 20 19 18 14 12 10
2 5 3 7 5 3 1 2 3 3 2 3 3 4 6 9 7 10 4 2 3 4 6 8 7 9 12 9 2 4 6 9 13 17 19 20 19 18 19 19 17 16 14 12
3 2 3 1 1 0 2 1 2 4 3 5 5 5 4 7 10 10 4 1 1 4 6 7 5 7 11 12 6 1 5 9 15 18 18 18 19 19 18 17 17 17 16 13
4 3 3 4 4 3 1 2 2 5 6 6 7 5 5 6 8 7 4 2 2 3 5 6 6 7 9 11 12 9 6 8 13 15 16 17 17 18 17 16 16 16 13 12
5 6 4 4 3 2 4 5 7 8 10 7 7 6 5 5 7 6 4 1 1 5 5 4 5 7 9 12 13 12 9 8 11 13 13 14 15 14 14 13 12 11 10 10
Wind_Direction
8 60 38 6 298 234 180 166 145 252 204 51 333 321 321 328 345 339 327 309 324 295 127 209 178 187 198 209 216 220 209 217 234 223 212 211 219 220 217 223 227 227 225 224
27 63 275 282 264 122 150 161 162 179 175 140 193 291 282 324 292 265 275 278 269 287 302 258 193 187 197 201 208 212 211 213 220 217 225 230 217 221 219 225 225 231 234 231
132 216 307 354 83 76 60 165 238 159 155 36 120 283 263 283 294 289 265 234 217 234 261 264 234 213 207 208 211 214 211 213 217 216 217 221 223 220 217 223 226 230 237 234
158 273 268 268 99 119 143 256 181 115 101 232 205 230 189 220 218 261 260 234 222 230 242 252 246 238 215 219 220 219 216 218 222 224 218 225 228 226 225 230 233 237 232 235
246 40 77 220 225 176 176 40 138 128 108 121 150 267 281 177 216 237 236 245 225 206 216 239 226 240 238 231 225 224 227 234 234 226 231 236 237 235 242 246 249 247 234 232
253 276 185 243 297 314 158 60 52 56 46 226 200 172 252 191 220 230 246 245 228 214 205 224 238 238 241 244 243 234 222 224 235 234 233 233 243 243 246 252 241 242 232 225
337 292 291 173 313 347 101 104 63 195 216 222 317 180 253 190 236 245 233 240 228 225 227 204 204 214 226 232 235 233 229 222 225 227 230 229 237 244 249 251 251 239 232 224
71 328 203 156 191 198 178 161 155 193 193 220 135 229 247 235 257 231 246 227 212 257 264 246 201 199 214 219 224 227 225 224 220 224 231 235 239 243 245 246 247 244 237 230
160 274 287 185 295 138 189 181 166 107 118 80 221 289 295 261 269 274 274 231 260 308 293 238 217 208 210 213 219 224 217 223 224 222 225 229 234 244 246 247 242 233 216 195
235 316 324 326 94 282 205 174 102 119 219 184 268 275 242 328 279 277 295 245 124 38 10 357 42 223 217 231 225 216 212 218 215 210 212 217 221 224 230 227 220 212 193 186
166 198 296 349 216 195 152 207 312 136 153 177 238 259 222 269 286 264 252 282 72 68 32 17 18 36 127 189 203 200 196 195 189 195 201 205 208 207 200 196 191 188 182 181
228 176 264 236 292 163 162 289 218 165 183 90 140 268 320 282 283 257 188 135 89 38 65 44 39 55 104 142 159 175 178 187 192 192 194 192 190 186 181 177 174 172 168 166
5 337 356 335 208 65 18 298 229 248 105 194 135 266 288 22 27 43 133 95 79 72 45 35 39 41 52 91 140 161 177 182 183 180 180 178 177 174 169 165 162 163 163 165
19 181 165 200 240 178 289 254 295 218 204 147 230 239 310 23 48 49 97 96 79 60 39 7 4 351 11 72 132 167 187 188 183 182 182 179 178 174 169 167 165 164 162 160
65 201 235 263 267 266 260 269 287 274 260 220 209 212 249 257 233 221 205 124 111 31 341 300 298 311 298 300 294 214 203 197 192 190 189 188 181 178 176 173 170 164 170 185
15 277 345 290 261 235 259 259 258 254 263 259 260 284 270 312 53 109 133 336 353 338 317 297 281 261 253 252 250 241 221 211 203 199 196 190 185 184 183 180 180 183 183 176
80 72 38 284 346 319 317 242 217 236 190 245 240 263 11 306 307 280 241 234 250 285 292 284 291 296 285 257 244 238 231 212 207 205 200 196 194 193 190 187 188 187 183 174
118 92 53 298 316 320 246 1 304 243 300 238 275 273 248 234 264 271 229 237 261 256 263 269 282 301 312 310 277 255 231 215 206 203 204 202 197 193 192 192 190 183 180 179
91 109 52 20 297 287 77 5 355 359 99 18 320 310 295 259 257 296 259 200 241 236 303 299 304 303 299 294 295 274 229 215 209 208 206 203 200 199 195 189 186 186 186 182
82 14 99 16 319 251 183 291 228 211 272 358 352 342 340 29 132 267 335 33 5 11 354 334 324 310 301 300 291 266 239 212 210 212 209 206 204 199 193 190 188 192 193 190
174 209 189 287 250 280 265 300 306 97 247 340 348 350 351 360 319 309 348 18 20 344 332 329 322 309 306 301 283 258 236 220 222 215 204 199 199 197 195 190 191 192 191 190
175 165 202 143 233 292 352 330 43 360 327 358 338 360 347 334 319 316 332 329 341 344 337 338 332 329 335 323 291 252 235 238 221 204 197 194 195 195 192 192 191 191 190 187
220 187 184 181 217 227 132 159 136 137 258 290 300 323 341 345 328 318 283 299 328 356 351 346 340 344 360 355 320 239 230 205 192 189 190 190 188 189 192 193 191 187 191 198
251 176 213 335 283 340 288 169 100 25 301 294 274 279 326 331 329 316 295 273 332 358 12 3 7 12 18 28 41 115 165 175 178 175 178 181 183 184 191 195 198 197 198 203
203 132 189 267 285 295 204 151 25 330 318 312 290 285 313 317 319 305 281 213 153 90 39 39 42 45 35 46 57 68 107 153 162 164 166 174 181 186 187 196 201 206 215 224
187 186 169 221 201 182 254 323 310 311 306 297 289 300 277 266 298 314 290 282 300 98 69 60 66 68 64 64 59 63 85 127 146 148 161 172 181 185 190 193 197 209 223 239
Height
755 755 756 760 763 762 756 759 762 759 765 759 773 767 759 758 761 763 763 762 761 758 761 763 763 765 772 777 779 784 788 792 798 800 805 808 808 811 813 816 819 822 823 825
768 766 761 761 758 757 761 762 772 775 764 766 775 765 757 756 761 762 764 764 761 760 758 760 760 767 769 771 775 780 785 789 794 794 796 802 804 806 808 812 814 818 821 823
770 763 759 758 757 758 760 764 761 758 761 760 764 771 764 760 757 755 756 760 760 760 760 759 761 762 765 766 769 774 779 783 788 793 796 800 802 801 805 807 810 813 817 818
765 764 761 758 757 758 760 754 752 753 756 765 760 765 764 760 757 755 752 755 755 756 756 755 756 759 760 760 765 769 772 776 781 786 788 792 794 796 798 801 804 809 812 814
765 764 762 758 755 755 758 752 756 759 767 769 766 775 757 756 753 749 743 743 747 751 752 753 754 753 754 758 762 765 769 772 775 779 784 787 789 791 795 797 800 803 807 809
765 764 764 760 755 753 753 757 761 771 772 775 771 771 763 760 747 740 734 737 740 743 747 748 749 752 753 754 757 762 765 769 773 778 780 783 785 788 791 794 797 799 803 805
777 765 761 759 759 756 757 763 775 774 772 777 776 772 750 742 744 743 736 735 735 737 741 745 746 749 750 753 755 758 761 765 769 773 777 779 781 784 787 790 795 797 798 800
800 785 762 756 758 760 762 763 783 771 781 789 775 766 752 737 735 737 736 731 733 736 738 739 740 742 746 748 752 755 758 761 764 768 772 775 779 782 786 787 791 791 794 797
788 778 760 759 756 757 763 776 764 788 794 814 781 764 744 730 731 728 733 730 732 733 736 736 733 736 740 744 746 750 754 758 762 766 770 772 775 777 780 783 786 790 792 795
771 789 764 760 758 760 759 764 771 773 770 771 775 771 754 732 730 726 731 731 731 734 735 734 732 735 737 739 744 749 751 755 760 764 767 770 772 774 778 781 782 784 789 793
768 773 775 766 766 766 764 763 767 768 770 779 771 760 748 739 737 736 734 730 731 735 735 735 732 733 736 740 744 746 749 754 757 761 764 767 770 773 774 776 780 783 787 792
767 771 779 768 762 762 760 765 764 762 772 788 798 766 740 743 743 738 735 735 734 735 737 737 736 738 740 741 742 745 748 751 754 757 761 765 768 771 773 776 781 785 788 792
773 790 790 789 767 764 767 765 762 766 769 794 786 766 740 742 742 738 738 738 740 738 739 739 738 740 742 743 743 746 749 752 754 756 760 764 768 771 774 777 781 785 788 792
774 788 796 803 790 777 783 768 770 760 760 777 762 750 738 738 739 740 741 741 741 741 741 742 742 742 743 744 745 746 749 750 752 756 760 763 767 771 775 778 781 784 787 791
785 808 787 779 779 776 772 767 766 766 760 768 757 754 745 740 739 738 740 741 743 742 740 742 743 744 744 743 744 745 747 750 752 756 759 763 767 771 775 779 782 784 787 790
794 817 798 804 784 781 776 766 762 760 766 760 762 761 750 740 741 738 742 745 743 742 741 743 743 744 744 743 745 746 747 749 751 754 758 763 766 771 774 777 781 784 786 789
804 802 812 802 783 772 788 763 757 754 754 754 754 746 746 748 745 742 741 744 745 742 741 743 743 742 743 744 745 745 746 748 749 752 757 762 766 769 773 776 779 782 786 787
804 810 799 805 783 792 763 753 752 755 754 750 754 753 747 747 738 733 736 740 741 741 742 741 742 741 742 743 742 743 744 746 747 750 755 759 762 767 771 774 778 781 784 786
802 805 815 798 789 781 755 763 764 759 764 765 764 755 748 741 739 739 736 738 739 739 739 738 739 739 740 740 741 741 742 742 745 747 749 754 760 764 768 771 775 780 782 784
798 799 808 806 796 783 767 763 764 763 763 765 764 760 751 742 747 741 739 738 738 739 738 738 738 737 737 736 737 737 737 738 740 742 745 752 757 760 764 768 773 777 780 782
798 804 806 814 812 785 766 762 761 760 767 767 764 762 760 755 751 744 740 739 740 741 740 739 739 738 736 734 733 732 733 732 734 740 745 750 754 758 762 766 770 774 778 780
791 792 784 797 797 795 767 762 756 769 769 768 769 765 761 756 750 744 743 742 742 742 741 739 739 737 733 730 728 728 729 732 735 739 743 748 753 757 761 765 769 773 776 779
786 783 785 786 778 768 766 766 768 769 771 768 768 765 763 759 754 749 744 744 743 742 741 740 739 737 734 730 728 727 728 731 734 738 743 748 752 756 760 764 767 770 774 776
779 779 778 773 767 767 766 767 767 769 768 766 764 763 760 759 755 751 746 745 745 743 742 741 740 740 737 733 730 729 729 731 734 738 743 747 750 754 758 762 765 768 771 774
782 779 780 780 771 768 767 768 769 768 767 765 761 760 757 757 754 751 747 746 744 744 743 742 743 742 740 737 735 733 733 734 737 739 742 746 750 753 757 760 763 766 769 772
780 774 777 774 772 773 771 770 769 768 766 763 761 758 756 755 752 749 746 746 746 743 744 745 744 743 742 740 740 739 738 738 740 741 744 747 750 753 756 759 762 765 768 769